{"data":{"norad_id":50487,"epoch":"2026-05-25T01:12:16.934400Z","epoch_age_seconds":74692,"freshness":"FRESH","line1":"1 50487U 21132U   26145.05019600  .00000053  00000+0  10204-3 0  9999","line2":"2 50487  87.9169 340.0523 0001663  83.7760 276.3562 13.18685479218510","mean_motion":13.18685479,"eccentricity":0.0001663,"inclination_deg":87.9169,"raan_deg":340.0523,"arg_perigee_deg":83.776,"mean_anomaly_deg":276.3562,"bstar":0.00010204,"rev_number":21851,"period_min":109.1996554851,"perigee_km":1188.4865814015,"apogee_km":1191.0036589947,"semimajor_km":7567.8821201981,"source":"CELESTRAK","updated_at":"2026-05-25T13:38:22.531866Z"}}